XBLMZ MMAA-MMMX

Flight info

Callsign XBLMZ
Flight time N/A
Altitude 35000
Route ALNU1B ALNUS UT117 ESPOS ESPO3A
Aircraft FA50/L-VGDW/C

Departure

Time 2026-05-08 02:21
Airport General Juan N. Álvarez International Airport (MMAA)

Arrival

Time N/A
Airport Mexico City Benito Juárez International Airport (MMMX)
Time Latitude Longitude Altitude Speed Heading
2026-05-08 01:53 16.76076 -99.75582 19 ft 0 kts 198°
2026-05-08 01:55 16.76208 -99.75068 19 ft 0 kts 198°
2026-05-08 02:13 16.76193 -99.75064 19 ft 5 kts 155°
2026-05-08 02:14 16.76151 -99.75042 19 ft 7 kts 148°
2026-05-08 02:14 16.76144 -99.75037 19 ft 0 kts 148°
2026-05-08 02:15 16.76121 -99.74996 19 ft 13 kts 110°
2026-05-08 02:15 16.76094 -99.74910 19 ft 12 kts 106°
2026-05-08 02:16 16.76066 -99.74828 19 ft 12 kts 128°
2026-05-08 02:16 16.75984 -99.74782 19 ft 15 kts 156°
2026-05-08 02:16 16.75884 -99.74734 19 ft 17 kts 155°
2026-05-08 02:16 16.75780 -99.74685 19 ft 15 kts 156°
2026-05-08 02:17 16.75697 -99.74641 19 ft 12 kts 137°
2026-05-08 02:17 16.75666 -99.74572 19 ft 9 kts 109°
2026-05-08 02:17 16.75652 -99.74530 19 ft 7 kts 108°
2026-05-08 02:17 16.75649 -99.74521 19 ft 8 kts 108°
2026-05-08 02:18 16.75625 -99.74444 19 ft 15 kts 108°
2026-05-08 02:18 16.75600 -99.74365 19 ft 19 kts 108°
2026-05-08 02:18 16.75551 -99.74213 19 ft 25 kts 108°
2026-05-08 02:18 16.75488 -99.74014 19 ft 20 kts 108°
2026-05-08 02:19 16.75457 -99.73917 19 ft 21 kts 108°
2026-05-08 02:19 16.75392 -99.73713 19 ft 23 kts 108°
2026-05-08 02:19 16.75340 -99.73551 19 ft 23 kts 109°
2026-05-08 02:19 16.75291 -99.73394 19 ft 21 kts 117°
2026-05-08 02:20 16.75169 -99.73364 19 ft 16 kts 197°
2026-05-08 02:20 16.75118 -99.73381 19 ft 6 kts 198°
2026-05-08 02:20 16.75091 -99.73406 19 ft 6 kts 293°
2026-05-08 02:20 16.75095 -99.73419 19 ft 0 kts 287°
2026-05-08 02:21 16.75146 -99.73579 19 ft 76 kts 288°
2026-05-08 02:21 16.75420 -99.74459 82 ft 168 kts 288°
2026-05-08 02:21 16.75835 -99.75745 634 ft 197 kts 289°
2026-05-08 02:22 16.76296 -99.77137 1159 ft 213 kts 289°
2026-05-08 02:22 16.76803 -99.78638 1834 ft 218 kts 290°
2026-05-08 02:22 16.77291 -99.80112 2611 ft 215 kts 290°
2026-05-08 02:22 16.77811 -99.81636 3403 ft 235 kts 288°
2026-05-08 02:23 16.78305 -99.83333 4655 ft 253 kts 286°
2026-05-08 02:23 16.78824 -99.85144 5923 ft 268 kts 289°
2026-05-08 02:23 16.79841 -99.86772 7231 ft 275 kts 315°
2026-05-08 02:23 16.81405 -99.87945 8541 ft 280 kts 330°
2026-05-08 02:24 16.83178 -99.88791 9843 ft 281 kts 339°
2026-05-08 02:24 16.85031 -99.89446 11145 ft 280 kts 342°
2026-05-08 02:24 16.86909 -99.90000 12448 ft 286 kts 344°
2026-05-08 02:24 16.88869 -99.90531 13757 ft 294 kts 346°
2026-05-08 02:25 16.90868 -99.91057 15058 ft 298 kts 347°
2026-05-08 02:25 16.92897 -99.91492 16359 ft 297 kts 359°
2026-05-08 02:25 16.94929 -99.91351 17653 ft 291 kts 13°
2026-05-08 02:25 16.96914 -99.90800 18583 ft 300 kts 22°
2026-05-08 02:26 16.98886 -99.89976 19391 ft 309 kts 27°
2026-05-08 02:26 17.00841 -99.88984 20147 ft 318 kts 30°
2026-05-08 02:26 17.02813 -99.87874 20862 ft 326 kts 32°
2026-05-08 02:26 17.04815 -99.86680 21570 ft 338 kts 33°
2026-05-08 02:27 17.06900 -99.85393 22282 ft 360 kts 33°
2026-05-08 02:27 17.09153 -99.83977 23003 ft 397 kts 34°
2026-05-08 02:27 17.11624 -99.82407 23726 ft 434 kts 34°
2026-05-08 02:27 17.14289 -99.80712 24447 ft 462 kts 33°
2026-05-08 02:28 17.17102 -99.78928 25165 ft 482 kts 33°
2026-05-08 02:28 17.20131 -99.77304 25892 ft 498 kts 22°
2026-05-08 02:28 17.23478 -99.76308 26734 ft 505 kts 12°
2026-05-08 02:28 17.26966 -99.75793 27656 ft 505 kts
2026-05-08 02:29 17.30476 -99.75609 28605 ft 503 kts
2026-05-08 02:29 17.33960 -99.75640 29564 ft 498 kts 358°
2026-05-08 02:29 17.37396 -99.75801 30591 ft 491 kts 356°
2026-05-08 02:29 17.40788 -99.76031 31633 ft 485 kts 355°
2026-05-08 02:30 17.44129 -99.76288 32674 ft 479 kts 355°
2026-05-08 02:30 17.47439 -99.76545 33720 ft 473 kts 355°
2026-05-08 02:30 17.50701 -99.76780 34765 ft 466 kts 355°
2026-05-08 02:30 17.53920 -99.76985 35530 ft 466 kts 355°
2026-05-08 02:31 17.60335 -99.77265 35728 ft 456 kts 357°
2026-05-08 02:31 17.63491 -99.77347 35846 ft 452 kts 357°
2026-05-08 02:31 17.66621 -99.77408 35912 ft 453 kts 358°
2026-05-08 02:32 17.72947 -99.77504 35933 ft 453 kts 358°
2026-05-08 02:32 17.79261 -99.77676 35939 ft 454 kts 356°
2026-05-08 02:33 17.85567 -99.77961 35946 ft 455 kts 356°
2026-05-08 02:33 17.91911 -99.78291 35954 ft 458 kts 355°
2026-05-08 02:34 17.98292 -99.78637 35960 ft 459 kts 355°
2026-05-08 02:34 18.04675 -99.78986 35967 ft 461 kts 355°
2026-05-08 02:35 18.11050 -99.79334 35973 ft 462 kts 355°
2026-05-08 02:35 18.17488 -99.79683 35979 ft 464 kts 355°
2026-05-08 02:36 18.23958 -99.80034 35984 ft 466 kts 355°
2026-05-08 02:36 18.30431 -99.80383 35989 ft 467 kts 355°
2026-05-08 02:37 18.36937 -99.80733 35995 ft 468 kts 355°
2026-05-08 02:37 18.43439 -99.81085 35998 ft 468 kts 355°
2026-05-08 02:38 18.49953 -99.81436 36002 ft 469 kts 355°
2026-05-08 02:38 18.56494 -99.81788 35748 ft 471 kts 355°
2026-05-08 02:39 18.59768 -99.81964 35411 ft 471 kts 355°
2026-05-08 02:39 18.62991 -99.82137 35070 ft 471 kts 355°
2026-05-08 02:39 18.66310 -99.82315 34717 ft 471 kts 355°
2026-05-08 02:39 18.68460 -99.82431 34487 ft 471 kts 356°